Weather History for LIPX - September, 2013

Change the Weather History Date:

Thursday, September 12, 2013

  Actual Average Record
Temperature  
Mean Temperature 64 °F -  
Max Temperature 75 °F 72 °F 86 °F (2011)
Min Temperature 54 °F 53 °F 46 °F (2001)
Growing Degree Days 14 (Base 50)    
Moisture  
Dew Point 54 °F    
Average Humidity 68    
Maximum Humidity 94    
Minimum Humidity 37    
Precipitation  
Precipitation 0.00 in 0.09 in - ()
Sea Level Pressure  
Sea Level Pressure 29.95 in    
Wind  
Wind Speed 4 mph ()    
Max Wind Speed 10 mph    
Max Gust Speed -    
Visibility 6.4 miles    
Events      
Averages and records for this station are not official NWS values.
T = Trace of Precipitation, MM = Missing Value Source: Averaged Metar Reports

Daily Weather History Graph

Daily Weather History Graph

Search for Another Location

Airport or City:

Trip Planner

Search our weather history database for the weather conditions in past years. The results will help you decide how hot, cold, wet, or windy it might be!

Date:

Astronomy

Sep. 12, 2013 Rise Set
Actual Time 6:51 AM CEST 7:33 PM CEST
Civil Twilight 6:21 AM CEST 8:03 PM CEST
Nautical Twilight 5:45 AM CEST 8:38 PM CEST
Astronomical Twilight 5:08 AM CEST 9:15 PM CEST
Moon 2:21 PM CEST (9/12) 11:52 PM CEST (9/12)
Length of Visible Light 13h 41m
Length of Day
12h 42m
Waxing Crescent, 47% of the Moon is Illuminated
Sep 12
Waxing Crescent
Sep 12
First Quarter
Sep 19
Full
Sep 27
Last Quarter
Oct 5
New

Hourly Weather History & Observations

Time (CEST) Temp. Dew Point Humidity Pressure Visibility Wind Dir Wind Speed Gust Speed Precip Events Conditions
12:15 AM 59.0 °F 55.4 °F 88% 29.98 in - SE 3.5 mph - N/A   Clear
12:45 AM 57.2 °F 53.6 °F 88% 29.98 in - WSW 2.3 mph - N/A   Clear
1:15 AM 57.2 °F 53.6 °F 88% 29.98 in - West 4.6 mph - N/A   Clear
1:45 AM 57.2 °F 53.6 °F 88% 29.98 in - West 3.5 mph - N/A   Clear
2:00 AM 58 °F 54 °F 83% 29.98 in 6 mi West 3.5 mph - -  
2:15 AM 57.2 °F 55.4 °F 94% 29.95 in - North 3.5 mph - N/A   Clear
2:45 AM 57.2 °F 55.4 °F 94% 29.95 in - North 3.5 mph - N/A   Clear
3:15 AM 57.2 °F 55.4 °F 94% 29.95 in - North 3.5 mph - N/A   Clear
3:45 AM 57.2 °F 55.4 °F 94% 29.95 in - North 3.5 mph - N/A   Clear
4:15 AM 57.2 °F 55.4 °F 94% 29.95 in 6.2 mi NW 3.5 mph - N/A   Partly Cloudy
4:45 AM 57.2 °F 53.6 °F 88% 29.95 in 6.2 mi NNW 2.3 mph - N/A   Partly Cloudy
5:00 AM 56 °F 54 °F 91% 29.96 in 6 mi NNW 2.3 mph - -   Scattered Clouds
5:15 AM 57.2 °F 53.6 °F 88% 29.95 in 6.2 mi NNW 1.2 mph - N/A   Scattered Clouds
5:45 AM 57.2 °F 53.6 °F 88% 29.95 in 6.2 mi NW 2.3 mph - N/A   Scattered Clouds
6:15 AM 57.2 °F 55.4 °F 94% 29.95 in 6.2 mi NNW 5.8 mph - N/A   Scattered Clouds
6:45 AM 57.2 °F 55.4 °F 94% 29.95 in 6.2 mi NNW 5.8 mph - N/A   Scattered Clouds
7:15 AM 57.2 °F 53.6 °F 88% 29.95 in 6.2 mi NNW 5.8 mph - N/A   Scattered Clouds
7:45 AM 59.0 °F 53.6 °F 82% 29.95 in 6.2 mi NNW 4.6 mph - N/A   Scattered Clouds
8:00 AM 58 °F 54 °F 84% 29.97 in 12 mi NNW 4.6 mph - -   Partly Cloudy
8:15 AM 60.8 °F 55.4 °F 82% 29.95 in 6.2 mi NNW 4.6 mph - N/A   Partly Cloudy
8:45 AM 62.6 °F 55.4 °F 77% 29.95 in 6.2 mi NNW 1.2 mph - N/A   Partly Cloudy
9:15 AM 64.4 °F 53.6 °F 68% 29.95 in 6.2 mi WSW 3.5 mph - N/A   Partly Cloudy
9:45 AM 66.2 °F 53.6 °F 64% 29.95 in 6.2 mi SW 4.6 mph - N/A   Partly Cloudy
10:15 AM 68.0 °F 53.6 °F 60% 29.98 in 6.2 mi West 4.6 mph - N/A   Partly Cloudy
10:45 AM 68.0 °F 51.8 °F 56% 29.98 in 6.2 mi SSW 5.8 mph - N/A   Partly Cloudy
11:00 AM 69 °F 52 °F 45% 29.97 in 6 mi SSW 5.8 mph - -   Scattered Clouds
11:15 AM 69.8 °F 53.6 °F 56% 29.95 in 6.2 mi SSW 8.1 mph - N/A   Partly Cloudy
11:45 AM 69.8 °F 53.6 °F 56% 29.95 in 6.2 mi SSW 8.1 mph - N/A   Partly Cloudy
12:15 PM 71.6 °F 53.6 °F 53% 29.95 in 6.2 mi SW 8.1 mph - N/A   Scattered Clouds
12:45 PM 71.6 °F 55.4 °F 57% 29.95 in 6.2 mi West 5.8 mph - N/A   Scattered Clouds
1:15 PM 71.6 °F 53.6 °F 53% 29.95 in 6.2 mi SSW 10.4 mph - N/A   Scattered Clouds
1:45 PM 73.4 °F 53.6 °F 50% 29.95 in 6.2 mi SW 9.2 mph - N/A   Scattered Clouds
2:15 PM 73.4 °F 53.6 °F 50% 29.95 in 6.2 mi SW 8.1 mph - N/A   Scattered Clouds
2:45 PM 73.4 °F 53.6 °F 50% 29.95 in 6.2 mi SSW 9.2 mph - N/A   Scattered Clouds
3:15 PM 75.2 °F 53.6 °F 47% 29.92 in 6.2 mi SSW 8.1 mph - N/A   Scattered Clouds
3:45 PM 75.2 °F 53.6 °F 47% 29.92 in 6.2 mi SSW 8.1 mph - N/A   Scattered Clouds
4:15 PM 75.2 °F 53.6 °F 47% 29.92 in 6.2 mi WSW 6.9 mph - N/A   Scattered Clouds
4:45 PM 73.4 °F 51.8 °F 47% 29.92 in 6.2 mi SSW 8.1 mph - N/A   Scattered Clouds
5:00 PM 74 °F 53 °F 37% 29.92 in 6 mi SSW 8.1 mph - -   Partly Cloudy
5:15 PM 73.4 °F 51.8 °F 47% 29.92 in 6.2 mi SW 9.2 mph - N/A   Partly Cloudy
5:45 PM 73.4 °F 53.6 °F 50% 29.92 in 6.2 mi SSW 8.1 mph - N/A   Partly Cloudy
6:15 PM 73.4 °F 53.6 °F 50% 29.92 in 6.2 mi SSW 5.8 mph - N/A   Partly Cloudy
6:45 PM 73.4 °F 55.4 °F 53% 29.92 in 6.2 mi SW 3.5 mph - N/A   Partly Cloudy
7:15 PM 73.4 °F 53.6 °F 50% 29.92 in 6.2 mi SSW 2.3 mph - N/A   Partly Cloudy
7:45 PM 71.6 °F 53.6 °F 53% 29.92 in 6.2 mi WSW 2.3 mph - N/A   Scattered Clouds
8:00 PM 72 °F 54 °F 44% 29.93 in 6 mi WSW 2.3 mph - -   Scattered Clouds
8:15 PM 69.8 °F 55.4 °F 60% 29.95 in 6.2 mi West 1.2 mph - N/A   Partly Cloudy
8:45 PM 69.8 °F 57.2 °F 64% 29.95 in 6.2 mi WSW 1.2 mph - N/A   Partly Cloudy
9:15 PM 68.0 °F 57.2 °F 68% 29.95 in 6.2 mi WSW 4.6 mph - N/A   Partly Cloudy
9:45 PM 68.0 °F 57.2 °F 68% 29.95 in 6.2 mi WSW 5.8 mph - N/A   Partly Cloudy
10:15 PM 68.0 °F 57.2 °F 68% 29.98 in 6.2 mi NNW 8.1 mph - N/A   Scattered Clouds
10:45 PM 68.0 °F 57.2 °F 68% 29.98 in 6.2 mi North 3.5 mph - N/A   Scattered Clouds
11:00 PM 68 °F 58 °F 61% 29.99 in 12 mi North 3.5 mph - -   Mostly Cloudy
11:15 PM 66.2 °F 57.2 °F 73% 29.98 in 6.2 mi East 5.8 mph - N/A   Scattered Clouds
11:45 PM 66.2 °F 55.4 °F 68% 29.98 in 6.2 mi East 4.6 mph - N/A   Scattered Clouds